Weather History for KNJK - August, 2013

Change the Weather History Date:

Thursday, August 15, 2013

  Actual Average Record
Temperature  
Mean Temperature 94 °F -  
Max Temperature 109 °F 103 °F 111 °F (1998)
Min Temperature 79 °F 79 °F 75 °F (2011)
Cooling Degree Days 29    
Growing Degree Days 44 (Base 50)    
Moisture  
Dew Point 56 °F    
Average Humidity 30    
Maximum Humidity 64    
Minimum Humidity 13    
Precipitation  
Precipitation 0.00 in - - ()
Sea Level Pressure  
Sea Level Pressure 29.81 in    
Wind  
Wind Speed 4 mph (South)    
Max Wind Speed 10 mph    
Max Gust Speed -    
Visibility 10 miles    
Events      
Averages and records for this station are not official NWS values.
T = Trace of Precipitation, MM = Missing Value Source: NWS Daily Summary

Daily Weather History Graph

Daily Weather History Graph

Search for Another Location

Airport or City:

Trip Planner

Search our weather history database for the weather conditions in past years. The results will help you decide how hot, cold, wet, or windy it might be!

Date:

Astronomy

Aug. 15, 2013 Rise Set
Actual Time 6:06 AM PDT 7:27 PM PDT
Civil Twilight 5:40 AM PDT 7:53 PM PDT
Nautical Twilight 5:09 AM PDT 8:24 PM PDT
Astronomical Twilight 4:36 AM PDT 8:56 PM PDT
Moon 2:43 PM PDT (8/15) 12:24 AM PDT (8/15)
Length of Visible Light 14h 13m
Length of Day
13h 21m
Waxing Gibbous, 65% of the Moon is Illuminated
Aug 15
Waxing Gibbous
Aug 20
Full
Aug 28
Last Quarter
Sep 5
New
Sep 12
First Quarter

Hourly Weather History & Observations

Time (PDT) Temp. Heat Index Dew Point Humidity Pressure Visibility Wind Dir Wind Speed Gust Speed Precip Events Conditions
12:56 AM 89.1 °F - 50.0 °F 26% 29.78 in 10.0 mi South 4.6 mph - N/A   Unknown
1:56 AM 86.0 °F - 46.0 °F 25% 29.78 in 10.0 mi Calm Calm - N/A   Unknown
2:56 AM 82.9 °F 82.1 °F 55.9 °F 39% 29.79 in 10.0 mi ESE 9.2 mph - N/A   Unknown
3:56 AM 82.0 °F 82.4 °F 60.1 °F 47% 29.80 in 10.0 mi Calm Calm - N/A   Unknown
4:56 AM 81.0 °F 81.7 °F 61.0 °F 50% 29.81 in 10.0 mi East 3.5 mph - N/A   Unknown
5:56 AM 80.1 °F 82.3 °F 66.9 °F 64% 29.82 in 10.0 mi SSE 3.5 mph - N/A   Scattered Clouds
6:56 AM 79.0 °F - 61.0 °F 54% 29.84 in 10.0 mi West 4.6 mph - N/A   Scattered Clouds
7:56 AM 86.0 °F 91.5 °F 71.1 °F 61% 29.86 in 10.0 mi North 3.5 mph - N/A   Scattered Clouds
8:56 AM 90.0 °F 96.9 °F 72.0 °F 55% 29.87 in 10.0 mi Calm Calm - N/A   Scattered Clouds
9:56 AM 96.1 °F 98.8 °F 64.9 °F 36% 29.87 in 10.0 mi Calm Calm - N/A   Partly Cloudy
10:56 AM 100.9 °F 100.0 °F 57.0 °F 23% 29.87 in 10.0 mi ENE 4.6 mph - N/A   Scattered Clouds
11:56 AM 102.9 °F 100.9 °F 53.1 °F 19% 29.86 in 10.0 mi East 4.6 mph - N/A   Scattered Clouds
12:56 PM 106.0 °F 103.9 °F 53.1 °F 17% 29.83 in 10.0 mi SE 6.9 mph - N/A   Scattered Clouds
1:56 PM 106.0 °F 105.8 °F 57.0 °F 20% 29.82 in 10.0 mi Variable 3.5 mph - N/A   Scattered Clouds
2:56 PM 108.0 °F 107.3 °F 55.9 °F 18% 29.79 in 10.0 mi Variable 4.6 mph - N/A   Partly Cloudy
3:56 PM 108.0 °F 108.0 °F 57.0 °F 19% 29.77 in 10.0 mi Calm Calm - N/A   Partly Cloudy
4:56 PM 109.0 °F 108.1 °F 55.9 °F 17% 29.75 in 10.0 mi Calm Calm - N/A   Partly Cloudy
5:56 PM 109.0 °F 107.4 °F 53.1 °F 16% 29.74 in 10.0 mi West 4.6 mph - N/A   Partly Cloudy
6:56 PM 107.1 °F 108.1 °F 59.0 °F 21% 29.74 in 10.0 mi East 4.6 mph - N/A   Scattered Clouds
7:56 PM 100.9 °F 101.6 °F 60.1 °F 26% 29.77 in 10.0 mi SSE 6.9 mph - N/A   Scattered Clouds
8:56 PM 100.9 °F - 48.0 °F 17% 29.79 in 10.0 mi WSW 8.1 mph - N/A   Clear
9:56 PM 95.0 °F - 48.0 °F 20% 29.80 in 10.0 mi SW 9.2 mph - N/A   Clear
10:56 PM 96.1 °F - 37.9 °F 13% 29.81 in 10.0 mi WSW 10.4 mph - N/A   Clear
11:56 PM 93.0 °F - 39.0 °F 15% 29.81 in 10.0 mi SW 9.2 mph - N/A   Unknown